Location: Caltech
(34.1382°N, 118.1253°W)
Time: 11:09:29
(UTC-08:00)

PANSAT - Visible Passes

Search period start: 20 February 2018 00:00
Search period end: 02 March 2018 00:00
Orbit: 476 x 483 km, 28.5° (Epoch: 19 February)

Date Brightness Start Highest point End Pass type
(mag) Time Alt. Az. Time Alt. Az. Time Alt. Az.
20 Feb 9.9 05:07:19 12° SSW 05:07:19 12° SSW 05:08:25 10° S visible
28 Feb 9.6 19:36:58 10° SW 19:38:35 18° SSW 19:38:35 18° SSW visible
01 Mar 9.0 19:07:05 10° SW 19:10:06 23° SSE 19:10:33 22° SSE visible
